COSMOS 2419 (714)

Last updated on Mon Oct 16 2017 00:19:00 GMT+0000 (Coordinated Universal Time)

1 28915U 05050A 17288.26479309 -.00000019 00000-0 00000-0 0 9992 2 28915 65.5562 61.8100 0015715 357.8174 44.7560 2.13106817 91898
UTC large
Height (km)
Speed (km/s)
/
Latitude / Longitude
Inclination (degrees)
Orbital Period (minutes)
Azimuth
Elevation
Range (km)
Doppler Factor

Next 0 passes for location: London (51.5072 / 0.1276)

Sorry there are no passes over London.